Tracking 35275 objects as of 9-Sep-2026
HD Live streaming from Space Station
objects crossing your sky now

R5-S2

Track R5-S2 now!
10-day predictions
R5-S2 is classified as:


NORAD ID: 60207
Int'l Code: 2024-126E
Launch date: July 4, 2024
Source: United States (US)
Launch site: AIR FORCE WESTERN TEST RANGE (AFWTR)

Uplink (MHz):
Downlink (MHz): 1621.250
Beacon (MHz):
Mode: FM
Call sign:
Status: Unknown

Your satellite tracking list
Your tracking list is empty




NASA's NSSDC Master Catalog

Two Line Element Set (TLE):
1 60207U 24125E   26252.56743406  .00014320  00000-0  27999-3 0  9990
2 60207  97.2265 104.3018 0012864 282.7428  77.2384 15.47456278122228
Source of the keplerian elements: AFSPC